contact:dominique.lefevre@mio.osupytheas.fr, maurice.libes@osupytheas.fr, didier.mallarino@osupytheas.fr
Project:EMSO http://www.emso-fr.org/EMSO-France
Depth: 2436.0 m
Title:EMSO Ligure Ouest : Data MII capteur CSTAR
DateTime,Latitude,Longitude,Instrument_Serial,Reference_Counts,Signal_Counts,Corrected_Signal_raw_counts,Calculated_Beam_c_inverse_meters,Internal_thermistor_counts
DateTime,Latitude,Longitude,Instrument_Serial,Reference_Counts,Signal_Counts,Corrected_Signal_raw_counts,Calculated_Beam_c_inverse_meters,Internal_thermistor_counts
2019-06-05T00:00:37,42.805,6.029,CST-1368DR,9198,12872,15554,0.016,550
2019-06-05T00:03:39,42.805,6.029,CST-1368DR,9198,12869,15550,0.017,551
2019-06-05T00:06:40,42.805,6.029,CST-1368DR,9198,12872,15553,0.016,551
2019-06-05T00:09:42,42.805,6.029,CST-1368DR,9198,12868,15549,0.017,551
2019-06-05T00:12:43,42.805,6.029,CST-1368DR,9198,12872,15554,0.016,551
2019-06-05T00:15:44,42.805,6.029,CST-1368DR,9198,12873,15554,0.016,551
2019-06-05T00:18:46,42.805,6.029,CST-1368DR,9198,12872,15554,0.016,551
2019-06-05T00:21:47,42.805,6.029,CST-1368DR,9198,12872,15554,0.016,551
2019-06-05T00:24:49,42.805,6.029,CST-1368DR,9198,12871,15553,0.016,551
2019-06-05T00:27:50,42.805,6.029,CST-1368DR,9198,12872,15554,0.016,550
2019-06-05T00:30:52,42.805,6.029,CST-1368DR,9198,12871,15553,0.016,551
2019-06-05T00:33:53,42.805,6.029,CST-1368DR,9198,12858,15537,0.020,551
2019-06-05T00:36:54,42.805,6.029,CST-1368DR,9198,12872,15553,0.016,551
2019-06-05T00:39:56,42.805,6.029,CST-1368DR,9198,12872,15553,0.016,551
2019-06-05T00:42:57,42.805,6.029,CST-1368DR,9198,12870,15552,0.016,551
2019-06-05T00:45:59,42.805,6.029,CST-1368DR,9198,12872,15554,0.016,551
2019-06-05T00:49:00,42.805,6.029,CST-1368DR,9198,12872,15554,0.016,551
2019-06-05T00:52:01,42.805,6.029,CST-1368DR,9198,12872,15554,0.016,551
2019-06-05T00:55:03,42.805,6.029,CST-1368DR,9198,12872,15554,0.016,551
2019-06-05T00:58:04,42.805,6.029,CST-1368DR,9198,12871,15552,0.016,551
2019-06-05T01:01:06,42.805,6.029,CST-1368DR,9198,12871,15553,0.016,551
2019-06-05T01:04:07,42.805,6.029,CST-1368DR,9198,12872,15553,0.016,550
2019-06-05T01:07:08,42.805,6.029,CST-1368DR,9198,12871,15552,0.016,551
2019-06-05T01:10:10,42.805,6.029,CST-1368DR,9197,12870,15553,0.016,551
2019-06-05T01:13:11,42.805,6.029,CST-1368DR,9197,12871,15553,0.016,551
2019-06-05T01:16:13,42.805,6.029,CST-1368DR,9197,12871,15554,0.016,550
2019-06-05T01:19:14,42.805,6.029,CST-1368DR,9197,12872,15555,0.016,551
2019-06-05T01:22:15,42.805,6.029,CST-1368DR,9197,12871,15554,0.016,551
2019-06-05T01:25:17,42.805,6.029,CST-1368DR,9197,12871,15554,0.016,551
2019-06-05T01:28:18,42.805,6.029,CST-1368DR,9197,12859,15539,0.020,551
2019-06-05T01:31:20,42.805,6.029,CST-1368DR,9197,12871,15554,0.016,551
2019-06-05T01:34:21,42.805,6.029,CST-1368DR,9197,12871,15554,0.016,550
2019-06-05T01:37:23,42.805,6.029,CST-1368DR,9197,12871,15553,0.016,550
2019-06-05T01:40:24,42.805,6.029,CST-1368DR,9197,12873,15556,0.015,551
2019-06-05T01:43:25,42.805,6.029,CST-1368DR,9197,12872,15555,0.016,550
2019-06-05T01:46:27,42.805,6.029,CST-1368DR,9197,12873,15556,0.015,550
2019-06-05T01:49:28,42.805,6.029,CST-1368DR,9197,12871,15553,0.016,551
2019-06-05T01:52:30,42.805,6.029,CST-1368DR,9197,12871,15554,0.016,551
2019-06-05T01:55:31,42.805,6.029,CST-1368DR,9197,12867,15549,0.017,550
2019-06-05T01:58:32,42.805,6.029,CST-1368DR,9197,12872,15555,0.016,551
2019-06-05T02:01:34,42.805,6.029,CST-1368DR,9197,12871,15554,0.016,551
2019-06-05T02:04:35,42.805,6.029,CST-1368DR,9197,12871,15554,0.016,551
2019-06-05T02:07:37,42.805,6.029,CST-1368DR,9197,12871,15554,0.016,550
2019-06-05T02:10:38,42.805,6.029,CST-1368DR,9197,12870,15553,0.016,551
2019-06-05T02:13:39,42.805,6.029,CST-1368DR,9197,12869,15552,0.016,551
2019-06-05T02:16:41,42.805,6.029,CST-1368DR,9197,12870,15552,0.016,551
2019-06-05T02:19:42,42.805,6.029,CST-1368DR,9197,12870,15553,0.016,551
2019-06-05T02:22:44,42.805,6.029,CST-1368DR,9197,12870,15553,0.016,551
2019-06-05T02:25:45,42.805,6.029,CST-1368DR,9197,12871,15554,0.016,550
2019-06-05T02:28:46,42.805,6.029,CST-1368DR,9197,12871,15553,0.016,551
2019-06-05T02:31:48,42.805,6.029,CST-1368DR,9197,12870,15553,0.016,551
2019-06-05T02:34:49,42.805,6.029,CST-1368DR,9197,12869,15552,0.016,550
2019-06-05T02:37:51,42.805,6.029,CST-1368DR,9197,12871,15553,0.016,551
2019-06-05T02:40:52,42.805,6.029,CST-1368DR,9197,12867,15549,0.017,551
2019-06-05T02:43:54,42.805,6.029,CST-1368DR,9197,12870,15553,0.016,551
2019-06-05T02:46:55,42.805,6.029,CST-1368DR,9197,12870,15552,0.016,550
2019-06-05T02:49:56,42.805,6.029,CST-1368DR,9197,12870,15553,0.016,551
2019-06-05T02:52:58,42.805,6.029,CST-1368DR,9197,12871,15554,0.016,551
2019-06-05T02:55:59,42.805,6.029,CST-1368DR,9197,12867,15549,0.017,551
2019-06-05T02:59:01,42.805,6.029,CST-1368DR,9197,12870,15553,0.016,551
2019-06-05T03:02:02,42.805,6.029,CST-1368DR,9197,12870,15553,0.016,551
2019-06-05T03:05:03,42.805,6.029,CST-1368DR,9197,12871,15554,0.016,551
2019-06-05T03:08:05,42.805,6.029,CST-1368DR,9197,12871,15554,0.016,551
2019-06-05T03:11:06,42.805,6.029,CST-1368DR,9196,12871,15556,0.015,551
2019-06-05T03:14:08,42.805,6.029,CST-1368DR,9196,12870,15554,0.016,551
2019-06-05T03:17:09,42.805,6.029,CST-1368DR,9196,12870,15554,0.016,551
2019-06-05T03:20:10,42.805,6.029,CST-1368DR,9196,12871,15555,0.016,551
2019-06-05T03:23:12,42.805,6.029,CST-1368DR,9196,12870,15554,0.016,550
2019-06-05T03:26:13,42.805,6.029,CST-1368DR,9196,12868,15551,0.017,551
2019-06-05T03:29:15,42.805,6.029,CST-1368DR,9196,12870,15554,0.016,551
2019-06-05T03:32:16,42.805,6.029,CST-1368DR,9196,12869,15553,0.016,551
2019-06-05T03:35:17,42.805,6.029,CST-1368DR,9196,12869,15553,0.016,551
2019-06-05T03:38:19,42.805,6.029,CST-1368DR,9196,12858,15539,0.020,551
2019-06-05T03:41:20,42.805,6.029,CST-1368DR,9196,12838,15516,0.026,550
2019-06-05T03:44:22,42.805,6.029,CST-1368DR,9196,12870,15554,0.016,551
2019-06-05T03:47:23,42.805,6.029,CST-1368DR,9196,12871,15555,0.016,551
2019-06-05T03:50:25,42.805,6.029,CST-1368DR,9196,12867,15550,0.017,551
2019-06-05T03:53:26,42.805,6.029,CST-1368DR,9196,12857,15538,0.020,551
2019-06-05T03:56:27,42.805,6.029,CST-1368DR,9196,12870,15555,0.016,551
2019-06-05T03:59:29,42.805,6.029,CST-1368DR,9196,12868,15552,0.016,550
2019-06-05T04:02:30,42.805,6.029,CST-1368DR,9196,12869,15553,0.016,551
2019-06-05T04:05:32,42.805,6.029,CST-1368DR,9196,12865,15548,0.017,551
2019-06-05T04:08:33,42.805,6.029,CST-1368DR,9196,12869,15554,0.016,550
2019-06-05T04:11:34,42.805,6.029,CST-1368DR,9196,12869,15553,0.016,551
2019-06-05T04:14:36,42.805,6.029,CST-1368DR,9196,12867,15550,0.017,550
2019-06-05T04:17:37,42.805,6.029,CST-1368DR,9196,12859,15541,0.019,551
2019-06-05T04:20:39,42.805,6.029,CST-1368DR,9195,12858,15541,0.019,551
2019-06-05T04:23:40,42.805,6.029,CST-1368DR,9195,12855,15537,0.020,551
2019-06-05T04:26:41,42.805,6.029,CST-1368DR,9195,12861,15545,0.018,551
2019-06-05T04:29:43,42.805,6.029,CST-1368DR,9195,12867,15552,0.016,550
2019-06-05T04:32:44,42.805,6.029,CST-1368DR,9195,12869,15554,0.016,551
2019-06-05T04:35:46,42.805,6.029,CST-1368DR,9195,12866,15551,0.017,551
2019-06-05T04:38:47,42.805,6.029,CST-1368DR,9195,12870,15556,0.015,550
2019-06-05T04:41:49,42.805,6.029,CST-1368DR,9195,12870,15555,0.016,550
2019-06-05T04:44:50,42.805,6.029,CST-1368DR,9195,12866,15551,0.017,551
2019-06-05T04:47:51,42.805,6.029,CST-1368DR,9195,12869,15554,0.016,551
2019-06-05T04:50:53,42.805,6.029,CST-1368DR,9195,12869,15555,0.016,551
2019-06-05T04:53:54,42.805,6.029,CST-1368DR,9195,12870,15556,0.015,551
2019-06-05T04:56:56,42.805,6.029,CST-1368DR,9196,12870,15555,0.016,551
2019-06-05T04:59:57,42.805,6.029,CST-1368DR,9195,12871,15557,0.015,551
2019-06-05T05:02:58,42.805,6.029,CST-1368DR,9195,12871,15557,0.015,551
2019-06-05T05:06:00,42.805,6.029,CST-1368DR,9195,12870,15556,0.015,551
2019-06-05T05:09:01,42.805,6.029,CST-1368DR,9195,12868,15554,0.016,551
2019-06-05T05:12:03,42.805,6.029,CST-1368DR,9195,12870,15556,0.015,550
2019-06-05T05:15:04,42.805,6.029,CST-1368DR,9195,12868,15553,0.016,550
2019-06-05T05:18:05,42.805,6.029,CST-1368DR,9195,12869,15554,0.016,550
2019-06-05T05:21:07,42.805,6.029,CST-1368DR,9195,12868,15553,0.016,551
2019-06-05T05:24:08,42.805,6.029,CST-1368DR,9195,12869,15554,0.016,551
2019-06-05T05:27:10,42.805,6.029,CST-1368DR,9195,12868,15554,0.016,551
2019-06-05T05:30:11,42.805,6.029,CST-1368DR,9195,12869,15554,0.016,551
2019-06-05T05:33:12,42.805,6.029,CST-1368DR,9195,12870,15556,0.015,551
2019-06-05T05:36:14,42.805,6.029,CST-1368DR,9195,12870,15556,0.015,551
2019-06-05T05:39:15,42.805,6.029,CST-1368DR,9195,12869,15555,0.016,551
2019-06-05T05:42:17,42.805,6.029,CST-1368DR,9195,12870,15556,0.015,551
2019-06-05T05:45:18,42.805,6.029,CST-1368DR,9195,12869,15555,0.016,551
2019-06-05T05:48:20,42.805,6.029,CST-1368DR,9195,12870,15556,0.015,551
2019-06-05T05:51:21,42.805,6.029,CST-1368DR,9195,12869,15554,0.016,551
2019-06-05T05:54:22,42.805,6.029,CST-1368DR,9195,12869,15555,0.016,550
2019-06-05T05:57:24,42.805,6.029,CST-1368DR,9195,12863,15548,0.017,551
2019-06-05T06:00:25,42.805,6.029,CST-1368DR,9195,12869,15554,0.016,551
2019-06-05T06:03:27,42.805,6.029,CST-1368DR,9195,12867,15553,0.016,551
2019-06-05T06:06:28,42.805,6.029,CST-1368DR,9194,12867,15554,0.016,550
2019-06-05T06:09:29,42.805,6.029,CST-1368DR,9194,12869,15556,0.015,550
2019-06-05T06:12:31,42.805,6.029,CST-1368DR,9194,12867,15554,0.016,551
2019-06-05T06:15:32,42.805,6.029,CST-1368DR,9194,12864,15551,0.017,551
2019-06-05T06:18:34,42.805,6.029,CST-1368DR,9194,12860,15545,0.018,551
2019-06-05T06:21:35,42.805,6.029,CST-1368DR,9194,12865,15552,0.016,551
2019-06-05T06:24:36,42.805,6.029,CST-1368DR,9194,12867,15553,0.016,550
2019-06-05T06:27:38,42.805,6.029,CST-1368DR,9194,12860,15545,0.018,551
2019-06-05T06:30:39,42.805,6.029,CST-1368DR,9194,12866,15553,0.016,551
2019-06-05T06:33:41,42.805,6.029,CST-1368DR,9194,12867,15553,0.016,550
2019-06-05T06:36:42,42.805,6.029,CST-1368DR,9194,12868,15555,0.016,551
2019-06-05T06:39:44,42.805,6.029,CST-1368DR,9194,12868,15554,0.016,551
2019-06-05T06:42:45,42.805,6.029,CST-1368DR,9194,12864,15550,0.017,550
2019-06-05T06:45:46,42.805,6.029,CST-1368DR,9194,12863,15549,0.017,551
2019-06-05T06:48:48,42.805,6.029,CST-1368DR,9194,12866,15552,0.016,550
2019-06-05T06:51:49,42.805,6.029,CST-1368DR,9194,12867,15554,0.016,551
2019-06-05T06:54:51,42.805,6.029,CST-1368DR,9194,12856,15540,0.020,551
2019-06-05T06:57:52,42.805,6.029,CST-1368DR,9194,12862,15548,0.017,551
2019-06-05T07:00:53,42.805,6.029,CST-1368DR,9194,12867,15554,0.016,550
2019-06-05T07:03:55,42.805,6.029,CST-1368DR,9194,12866,15552,0.016,551
2019-06-05T07:06:56,42.805,6.029,CST-1368DR,9194,12864,15550,0.017,550
2019-06-05T07:09:58,42.805,6.029,CST-1368DR,9194,12867,15554,0.016,551
2019-06-05T07:12:59,42.805,6.029,CST-1368DR,9194,12869,15556,0.015,550
2019-06-05T07:16:00,42.805,6.029,CST-1368DR,9194,12867,15554,0.016,551
2019-06-05T07:19:02,42.805,6.029,CST-1368DR,9194,12867,15554,0.016,551
2019-06-05T07:22:03,42.805,6.029,CST-1368DR,9194,12866,15553,0.016,551
2019-06-05T07:25:05,42.805,6.029,CST-1368DR,9194,12861,15547,0.018,551
2019-06-05T07:28:06,42.805,6.029,CST-1368DR,9194,12867,15554,0.016,550
2019-06-05T07:31:07,42.805,6.029,CST-1368DR,9194,12867,15553,0.016,551
2019-06-05T07:34:09,42.805,6.029,CST-1368DR,9194,12866,15553,0.016,551
2019-06-05T07:37:10,42.805,6.029,CST-1368DR,9194,12865,15551,0.017,550
2019-06-05T07:40:12,42.805,6.029,CST-1368DR,9194,12865,15551,0.017,551
2019-06-05T07:43:13,42.805,6.029,CST-1368DR,9194,12863,15548,0.017,551
2019-06-05T07:46:15,42.805,6.029,CST-1368DR,9194,12859,15544,0.018,551
2019-06-05T07:49:16,42.805,6.029,CST-1368DR,9193,12861,15548,0.017,550
2019-06-05T07:52:17,42.805,6.029,CST-1368DR,9194,12865,15551,0.017,551
2019-06-05T07:55:19,42.805,6.029,CST-1368DR,9193,12866,15554,0.016,550
2019-06-05T07:58:20,42.805,6.029,CST-1368DR,9193,12862,15549,0.017,551
2019-06-05T08:01:22,42.805,6.029,CST-1368DR,9193,12864,15552,0.016,551
2019-06-05T08:04:23,42.805,6.029,CST-1368DR,9193,12866,15554,0.016,551
2019-06-05T08:07:24,42.805,6.029,CST-1368DR,9193,12865,15553,0.016,551
2019-06-05T08:10:26,42.805,6.029,CST-1368DR,9193,12867,15556,0.015,550
2019-06-05T08:13:27,42.805,6.029,CST-1368DR,9193,12866,15554,0.016,551
2019-06-05T08:16:29,42.805,6.029,CST-1368DR,9193,12866,15554,0.016,551
2019-06-05T08:19:30,42.805,6.029,CST-1368DR,9193,12866,15554,0.016,551
2019-06-05T08:22:31,42.805,6.029,CST-1368DR,9193,12864,15552,0.016,551
2019-06-05T08:25:33,42.805,6.029,CST-1368DR,9193,12865,15553,0.016,550
2019-06-05T08:28:34,42.805,6.029,CST-1368DR,9193,12865,15552,0.016,551
2019-06-05T08:31:36,42.805,6.029,CST-1368DR,9193,12865,15553,0.016,551
2019-06-05T08:34:37,42.805,6.029,CST-1368DR,9193,12866,15554,0.016,551
2019-06-05T08:37:38,42.805,6.029,CST-1368DR,9193,12864,15552,0.016,551
2019-06-05T08:40:40,42.805,6.029,CST-1368DR,9193,12866,15554,0.016,551
2019-06-05T08:43:41,42.805,6.029,CST-1368DR,9193,12865,15553,0.016,551
2019-06-05T08:46:43,42.805,6.029,CST-1368DR,9193,12867,15555,0.016,551
2019-06-05T08:49:44,42.805,6.029,CST-1368DR,9193,12866,15554,0.016,551
2019-06-05T08:52:46,42.805,6.029,CST-1368DR,9193,12865,15553,0.016,551
2019-06-05T08:55:47,42.805,6.029,CST-1368DR,9193,12866,15554,0.016,551
2019-06-05T08:58:48,42.805,6.029,CST-1368DR,9193,12865,15552,0.016,551
2019-06-05T09:01:50,42.805,6.029,CST-1368DR,9193,12864,15552,0.016,551
2019-06-05T09:04:51,42.805,6.029,CST-1368DR,9193,12866,15554,0.016,550
2019-06-05T09:07:53,42.805,6.029,CST-1368DR,9193,12866,15555,0.016,551
2019-06-05T09:10:54,42.805,6.029,CST-1368DR,9193,12865,15553,0.016,551
2019-06-05T09:13:55,42.805,6.029,CST-1368DR,9193,12864,15552,0.016,551
2019-06-05T09:16:57,42.805,6.029,CST-1368DR,9193,12865,15553,0.016,551
2019-06-05T09:19:58,42.805,6.029,CST-1368DR,9193,12858,15544,0.018,551
2019-06-05T09:23:00,42.805,6.029,CST-1368DR,9193,12866,15554,0.016,551
2019-06-05T09:26:01,42.805,6.029,CST-1368DR,9193,12866,15554,0.016,551
2019-06-05T09:29:02,42.805,6.029,CST-1368DR,9193,12865,15553,0.016,551
2019-06-05T09:32:04,42.805,6.029,CST-1368DR,9193,12866,15554,0.016,551
2019-06-05T09:35:05,42.805,6.029,CST-1368DR,9192,12865,15555,0.016,551
2019-06-05T09:38:07,42.805,6.029,CST-1368DR,9192,12864,15554,0.016,550
2019-06-05T09:41:08,42.805,6.029,CST-1368DR,9193,12865,15552,0.016,551
2019-06-05T09:44:10,42.805,6.029,CST-1368DR,9192,12853,15540,0.020,551
2019-06-05T09:47:11,42.805,6.029,CST-1368DR,9192,12866,15555,0.016,550
2019-06-05T09:50:12,42.805,6.029,CST-1368DR,9192,12864,15554,0.016,551
2019-06-05T09:53:14,42.805,6.029,CST-1368DR,9192,12863,15552,0.016,551
2019-06-05T09:56:15,42.805,6.029,CST-1368DR,9192,12865,15555,0.016,551
2019-06-05T09:59:17,42.805,6.029,CST-1368DR,9192,12864,15553,0.016,550
2019-06-05T10:02:18,42.805,6.029,CST-1368DR,9192,12865,15555,0.016,551
2019-06-05T10:05:19,42.805,6.029,CST-1368DR,9192,12864,15554,0.016,551
2019-06-05T10:08:21,42.805,6.029,CST-1368DR,9192,12855,15542,0.019,551
2019-06-05T10:11:22,42.805,6.029,CST-1368DR,9192,12866,15555,0.016,551
2019-06-05T10:14:24,42.805,6.029,CST-1368DR,9192,12863,15552,0.016,551
2019-06-05T10:17:25,42.805,6.029,CST-1368DR,9192,12864,15553,0.016,551
2019-06-05T10:20:26,42.805,6.029,CST-1368DR,9192,12864,15554,0.016,551
2019-06-05T10:23:28,42.805,6.029,CST-1368DR,9192,12866,15555,0.016,551
2019-06-05T10:26:29,42.805,6.029,CST-1368DR,9192,12863,15552,0.016,551
2019-06-05T10:29:31,42.805,6.029,CST-1368DR,9192,12864,15553,0.016,551
2019-06-05T10:32:32,42.805,6.029,CST-1368DR,9192,12863,15552,0.016,550
2019-06-05T10:35:33,42.805,6.029,CST-1368DR,9192,12863,15552,0.016,550
2019-06-05T10:38:35,42.805,6.029,CST-1368DR,9191,12864,15554,0.016,551
2019-06-05T10:41:36,42.805,6.029,CST-1368DR,9192,12865,15555,0.016,551
2019-06-05T10:44:38,42.805,6.029,CST-1368DR,9192,12863,15552,0.016,551
2019-06-05T10:47:39,42.805,6.029,CST-1368DR,9192,12863,15552,0.016,551
2019-06-05T10:50:41,42.805,6.029,CST-1368DR,9191,12865,15556,0.015,550
2019-06-05T10:53:42,42.805,6.029,CST-1368DR,9191,12864,15555,0.016,551
2019-06-05T10:56:43,42.805,6.029,CST-1368DR,9191,12864,15555,0.016,551
2019-06-05T10:59:45,42.805,6.029,CST-1368DR,9191,12864,15554,0.016,551
2019-06-05T11:02:46,42.805,6.029,CST-1368DR,9192,12865,15555,0.016,551
2019-06-05T11:05:48,42.805,6.029,CST-1368DR,9191,12865,15556,0.015,551
2019-06-05T11:08:49,42.805,6.029,CST-1368DR,9191,12864,15555,0.016,551
2019-06-05T11:11:50,42.805,6.029,CST-1368DR,9191,12864,15555,0.016,551
2019-06-05T11:14:52,42.805,6.029,CST-1368DR,9191,12864,15555,0.016,551
2019-06-05T11:17:53,42.805,6.029,CST-1368DR,9191,12865,15556,0.015,551
2019-06-05T11:20:55,42.805,6.029,CST-1368DR,9191,12863,15553,0.016,551
2019-06-05T11:23:56,42.805,6.029,CST-1368DR,9191,12864,15555,0.016,551
2019-06-05T11:26:57,42.805,6.029,CST-1368DR,9191,12864,15555,0.016,551
2019-06-05T11:29:59,42.805,6.029,CST-1368DR,9191,12863,15554,0.016,551
2019-06-05T11:33:00,42.805,6.029,CST-1368DR,9191,12864,15555,0.016,551
2019-06-05T11:36:02,42.805,6.029,CST-1368DR,9191,12860,15550,0.017,551
2019-06-05T11:39:03,42.805,6.029,CST-1368DR,9191,12864,15554,0.016,550
2019-06-05T11:42:04,42.805,6.029,CST-1368DR,9191,12864,15555,0.016,551
2019-06-05T11:45:06,42.805,6.029,CST-1368DR,9191,12864,15554,0.016,551
2019-06-05T11:48:07,42.805,6.029,CST-1368DR,9191,12862,15553,0.016,551
2019-06-05T11:51:09,42.805,6.029,CST-1368DR,9191,12864,15554,0.016,551
2019-06-05T11:54:10,42.805,6.029,CST-1368DR,9191,12861,15552,0.016,551
2019-06-05T11:57:12,42.805,6.029,CST-1368DR,9191,12864,15555,0.016,551
2019-06-05T12:00:13,42.805,6.029,CST-1368DR,9191,12864,15555,0.016,551
2019-06-05T12:03:14,42.805,6.029,CST-1368DR,9191,12861,15551,0.017,550
2019-06-05T12:06:16,42.805,6.029,CST-1368DR,9191,12863,15553,0.016,551
2019-06-05T12:09:17,42.805,6.029,CST-1368DR,9191,12863,15554,0.016,551
2019-06-05T12:12:19,42.805,6.029,CST-1368DR,9191,12863,15554,0.016,551
2019-06-05T12:15:20,42.805,6.029,CST-1368DR,9191,12859,15549,0.017,551
2019-06-05T12:18:21,42.805,6.029,CST-1368DR,9191,12864,15555,0.016,550
2019-06-05T12:21:23,42.805,6.029,CST-1368DR,9191,12862,15552,0.016,551
2019-06-05T12:24:24,42.805,6.029,CST-1368DR,9190,12861,15553,0.016,551
2019-06-05T12:27:26,42.805,6.029,CST-1368DR,9190,12860,15551,0.017,550
2019-06-05T12:30:27,42.805,6.029,CST-1368DR,9190,12861,15553,0.016,551
2019-06-05T12:33:28,42.805,6.029,CST-1368DR,9190,12861,15553,0.016,551
2019-06-05T12:36:30,42.805,6.029,CST-1368DR,9190,12863,15555,0.016,551
2019-06-05T12:39:31,42.805,6.029,CST-1368DR,9190,12861,15552,0.016,551
2019-06-05T12:42:33,42.805,6.029,CST-1368DR,9190,12860,15551,0.017,551
2019-06-05T12:45:34,42.805,6.029,CST-1368DR,9190,12862,15554,0.016,551
2019-06-05T12:48:35,42.805,6.029,CST-1368DR,9190,12861,15553,0.016,551
2019-06-05T12:51:37,42.805,6.029,CST-1368DR,9190,12862,15554,0.016,550
2019-06-05T12:54:38,42.805,6.029,CST-1368DR,9190,12862,15554,0.016,550
2019-06-05T12:57:40,42.805,6.029,CST-1368DR,9190,12863,15555,0.016,551
2019-06-05T13:00:41,42.805,6.029,CST-1368DR,9190,12863,15555,0.016,551
2019-06-05T13:03:43,42.805,6.029,CST-1368DR,9190,12861,15552,0.016,551
2019-06-05T13:06:44,42.805,6.029,CST-1368DR,9190,12861,15553,0.016,551
2019-06-05T13:09:45,42.805,6.029,CST-1368DR,9190,12862,15554,0.016,551
2019-06-05T13:12:47,42.805,6.029,CST-1368DR,9190,12862,15554,0.016,550
2019-06-05T13:15:48,42.805,6.029,CST-1368DR,9190,12860,15552,0.016,551
2019-06-05T13:18:50,42.805,6.029,CST-1368DR,9190,12861,15553,0.016,550
2019-06-05T13:21:51,42.805,6.029,CST-1368DR,9190,12862,15554,0.016,551
2019-06-05T13:24:52,42.805,6.029,CST-1368DR,9190,12862,15554,0.016,551
2019-06-05T13:27:54,42.805,6.029,CST-1368DR,9189,12861,15555,0.016,550
2019-06-05T13:30:55,42.805,6.029,CST-1368DR,9189,12862,15555,0.016,551
2019-06-05T13:33:57,42.805,6.029,CST-1368DR,9189,12861,15554,0.016,551
2019-06-05T13:36:58,42.805,6.029,CST-1368DR,9189,12861,15554,0.016,550
2019-06-05T13:39:59,42.805,6.029,CST-1368DR,9189,12834,15522,0.024,551
2019-06-05T13:43:01,42.805,6.029,CST-1368DR,9189,12859,15552,0.016,550
2019-06-05T13:46:02,42.805,6.029,CST-1368DR,9188,12854,15547,0.018,551
2019-06-05T13:49:04,42.805,6.029,CST-1368DR,9188,12855,15548,0.017,550
2019-06-05T13:52:05,42.805,6.029,CST-1368DR,9187,12737,15407,0.054,551
2019-06-05T13:55:07,42.805,6.029,CST-1368DR,9186,12702,15366,0.065,550
2019-06-05T13:58:08,42.805,6.029,CST-1368DR,9187,12839,15531,0.022,551
2019-06-05T14:01:09,42.805,6.029,CST-1368DR,9187,12810,15495,0.031,551
2019-06-05T14:04:11,42.805,6.029,CST-1368DR,9187,12827,15516,0.026,550
2019-06-05T14:07:12,42.805,6.029,CST-1368DR,9188,12831,15520,0.025,551
2019-06-05T14:10:14,42.805,6.029,CST-1368DR,9187,12825,15513,0.026,551
2019-06-05T14:13:15,42.805,6.029,CST-1368DR,9187,12852,15547,0.018,550
2019-06-05T14:16:16,42.805,6.029,CST-1368DR,9187,12849,15543,0.019,551
2019-06-05T14:19:18,42.805,6.029,CST-1368DR,9187,12857,15552,0.016,551
2019-06-05T14:22:19,42.805,6.029,CST-1368DR,9188,12858,15553,0.016,551
2019-06-05T14:25:21,42.805,6.029,CST-1368DR,9187,12854,15549,0.017,551
2019-06-05T14:28:22,42.805,6.029,CST-1368DR,9187,12843,15536,0.021,551
2019-06-05T14:31:23,42.805,6.029,CST-1368DR,9187,12832,15522,0.024,551
2019-06-05T14:34:25,42.805,6.029,CST-1368DR,9186,12778,15458,0.041,551
2019-06-05T14:37:26,42.805,6.029,CST-1368DR,9187,12857,15552,0.016,551
2019-06-05T14:40:28,42.805,6.029,CST-1368DR,9187,12857,15552,0.016,551
2019-06-05T14:43:29,42.805,6.029,CST-1368DR,9187,12852,15546,0.018,551
2019-06-05T14:46:30,42.805,6.029,CST-1368DR,9187,12831,15521,0.024,550
2019-06-05T14:49:32,42.805,6.029,CST-1368DR,9188,12852,15544,0.018,551
2019-06-05T14:52:33,42.805,6.029,CST-1368DR,9188,12859,15554,0.016,550
2019-06-05T14:55:35,42.805,6.029,CST-1368DR,9188,12857,15550,0.017,551
2019-06-05T14:58:36,42.805,6.029,CST-1368DR,9188,12847,15538,0.020,550
2019-06-05T15:01:38,42.805,6.029,CST-1368DR,9188,12846,15537,0.020,551
2019-06-05T15:04:39,42.805,6.029,CST-1368DR,9188,12850,15542,0.019,551
2019-06-05T15:07:40,42.805,6.029,CST-1368DR,9188,12851,15544,0.018,550
2019-06-05T15:10:42,42.805,6.029,CST-1368DR,9188,12832,15521,0.024,550
2019-06-05T15:13:43,42.805,6.029,CST-1368DR,9188,12843,15534,0.021,551
2019-06-05T15:16:45,42.805,6.029,CST-1368DR,9188,12849,15542,0.019,551
2019-06-05T15:19:46,42.805,6.029,CST-1368DR,9188,12852,15545,0.018,551
2019-06-05T15:22:47,42.805,6.029,CST-1368DR,9188,12836,15525,0.023,550
2019-06-05T15:25:49,42.805,6.029,CST-1368DR,9188,12859,15553,0.016,551
2019-06-05T15:28:50,42.805,6.029,CST-1368DR,9188,12849,15541,0.019,551
2019-06-05T15:31:52,42.805,6.029,CST-1368DR,9188,12860,15554,0.016,551
2019-06-05T15:34:53,42.805,6.029,CST-1368DR,9188,12859,15553,0.016,551
2019-06-05T15:37:54,42.805,6.029,CST-1368DR,9189,12857,15549,0.017,551
2019-06-05T15:40:56,42.805,6.029,CST-1368DR,9188,12857,15551,0.017,550
2019-06-05T15:43:57,42.805,6.029,CST-1368DR,9188,12859,15554,0.016,551
2019-06-05T15:46:59,42.805,6.029,CST-1368DR,9188,12859,15554,0.016,551
2019-06-05T15:50:00,42.805,6.029,CST-1368DR,9188,12859,15553,0.016,550
2019-06-05T15:53:01,42.805,6.029,CST-1368DR,9188,12860,15554,0.016,551
2019-06-05T15:56:03,42.805,6.029,CST-1368DR,9188,12860,15555,0.016,550
2019-06-05T15:59:04,42.805,6.029,CST-1368DR,9188,12858,15553,0.016,551
2019-06-05T16:02:06,42.805,6.029,CST-1368DR,9188,12860,15555,0.016,551
2019-06-05T16:05:07,42.805,6.029,CST-1368DR,9188,12859,15553,0.016,550
2019-06-05T16:08:09,42.805,6.029,CST-1368DR,9188,12858,15552,0.016,551
2019-06-05T16:11:10,42.805,6.029,CST-1368DR,9188,12859,15553,0.016,551
2019-06-05T16:14:11,42.805,6.029,CST-1368DR,9188,12858,15552,0.016,551
2019-06-05T16:17:13,42.805,6.029,CST-1368DR,9188,12853,15546,0.018,551
2019-06-05T16:20:14,42.805,6.029,CST-1368DR,9188,12859,15554,0.016,551
2019-06-05T16:23:16,42.805,6.029,CST-1368DR,9188,12858,15552,0.016,551
2019-06-05T16:26:17,42.805,6.029,CST-1368DR,9188,12854,15548,0.017,551
2019-06-05T16:29:18,42.805,6.029,CST-1368DR,9188,12855,15549,0.017,551
2019-06-05T16:32:20,42.805,6.029,CST-1368DR,9188,12856,15550,0.017,551
2019-06-05T16:35:21,42.805,6.029,CST-1368DR,9188,12855,15549,0.017,551